CW8198 Weather Reports


time (UTC)temp
F
wind
direction
speed
knots
gust
knots
rain 1hr
in
rain 24hr
in
rain mn
in
humidity
%
barometer
mb
20260831072451 74 115 0.9 2.6 0.00 0.00 0.00 89 1009.3
20260831071950 74 126 0.9 2.6 0.00 0.00 0.00 89 1009.2
20260831071450 74 137 0.0 2.6 0.00 0.00 0.00 89 1009.2
20260831070945 74 117 1.7 2.6 0.00 0.00 0.00 89 1009.3
20260831070445 74 111 0.9 2.6 0.00 0.00 0.00 89 1009.4
20260831065445 74 196 0.9 1.7 0.00 0.00 0.00 89 1009.5
20260831064944 74 137 0.9 1.7 0.00 0.00 0.00 89 1009.5
20260831063944 74 338 0.0 1.7 0.00 0.00 0.00 88 1009.5
20260831063444 74 334 0.0 1.7 0.00 0.00 0.00 88 1009.5
20260831062443 75 284 0.9 1.7 0.00 0.00 0.00 88 1009.7
20260831060944 75 162 0.0 1.7 0.00 0.00 0.00 88 1009.5
20260831055943 75 178 0.0 1.7 0.00 0.00 0.00 87 1009.5
20260831055443 75 137 0.0 1.7 0.00 0.00 0.00 87 1009.5
20260831054943 75 34 0.0 1.7 0.00 0.00 0.00 87 1009.4
20260831054442 76 298 0.9 1.7 0.00 0.00 0.00 87 1009.2
20260831053943 76 119 0.9 1.7 0.00 0.00 0.00 87 1009.2
20260831052938 76 9 0.0 0.9 0.00 0.00 0.00 86 1009.3
20260831052435 76 153 0.0 1.7 0.00 0.00 0.00 86 1009.2
20260831051934 76 51 0.0 1.7 0.00 0.00 0.00 86 1009.1
20260831051434 76 215 0.9 2.6 0.00 0.00 0.00 86 1009.2
20260831050934 76 205 0.0 2.6 0.00 0.00 0.00 86 1009.1
20260831050433 76 291 0.9 1.7 0.00 0.00 0.00 86 1009.0
20260831045934 77 178 0.9 1.7 0.00 0.00 0.00 85 1009.0
20260831045434 77 34 0.9 3.5 0.00 0.00 0.00 85 1009.1
20260831044935 77 279 0.9 3.5 0.00 0.00 0.00 85 1009.2
20260831044433 77 293 0.9 3.5 0.00 0.00 0.00 84 1009.3
20260831043934 77 282 0.9 4.3 0.00 0.00 0.00 84 1009.2
20260831043434 78 338 1.7 4.3 0.00 0.00 0.00 83 1009.0
20260831042933 78 330 0.0 0.9 0.00 0.00 0.00 82 1009.0
20260831042432 78 298 0.0 0.9 0.00 0.00 0.00 82 1009.0
20260831041933 79 119 0.0 2.6 0.00 0.00 0.00 82 1009.0
20260831041433 79 196 0.9 2.6 0.00 0.00 0.00 81 1009.0
20260831040933 79 165 0.0 1.7 0.00 0.00 0.00 80 1009.1
20260831040432 80 212 0.0 0.9 0.00 0.00 0.00 80 1009.1
20260831035934 80 309 0.0 1.7 0.00 0.00 0.00 80 1009.1
20260831034932 80 137 0.0 1.7 0.00 0.00 0.00 80 1009.1
20260831034432 80 126 0.9 2.6 0.00 0.00 0.00 80 1009.3
20260831033932 80 119 1.7 2.6 0.00 0.00 0.00 80 1009.4
20260831033432 80 103 1.7 2.6 0.00 0.00 0.00 80 1009.4
20260831032932 79 137 1.7 3.5 0.00 0.00 0.00 81 1009.4
20260831032430 79 115 1.7 3.5 0.00 0.00 0.00 81 1009.3
20260831031932 79 111 2.6 3.5 0.00 0.00 0.00 81 1009.2
20260831030930 79 103 1.7 2.6 0.00 0.00 0.00 81 1009.3
20260831030431 79 119 1.7 3.5 0.00 0.00 0.00 81 1009.4
20260831025930 79 119 1.7 3.5 0.00 0.00 0.00 80 1009.4
20260831024930 80 137 0.9 1.7 0.00 0.00 0.00 78 1009.5
20260831024429 81 234 0.9 1.7 0.00 0.00 0.00 78 1009.4
20260831023930 81 221 0.9 1.7 0.00 0.00 0.00 78 1009.5
20260831023430 81 137 0.9 1.7 0.00 0.00 0.00 78 1009.4
20260831022929 81 119 1.7 1.7 0.00 0.00 0.00 78 1009.4
20260831022431 81 137 0.0 1.7 0.00 0.00 0.00 78 1009.4
20260831021929 81 291 0.9 1.7 0.00 0.00 0.00 78 1009.3
20260831021429 81 205 1.7 1.7 0.00 0.00 0.00 78 1009.2
20260831020929 81 111 0.9 2.6 0.00 0.00 0.00 78 1009.2
20260831015929 81 117 1.7 3.5 0.00 0.00 0.00 77 1009.1
20260831015428 82 121 1.7 3.5 0.00 0.00 0.00 77 1009.0
20260831014928 82 178 0.9 1.7 0.00 0.00 0.00 76 1009.1
20260831013927 83 111 0.9 2.6 0.00 0.00 0.00 75 1008.9
20260831013427 83 153 0.9 3.5 0.00 0.00 0.00 74 1008.9
20260831012928 83 178 1.7 3.5 0.00 0.00 0.00 73 1008.9
20260831012427 84 119 1.7 3.5 0.00 0.00 0.00 72 1008.8
20260831011927 85 110 1.7 2.6 0.00 0.00 0.00 69 1008.8
20260831011427 85 119 0.9 1.7 0.00 0.00 0.00 67 1008.8
20260831010427 86 119 0.0 0.9 0.00 0.00 0.00 66 1008.7
20260831005428 87 119 0.0 1.7 0.00 0.00 0.00 64 1008.7
20260831004927 87 238 0.0 1.7 0.00 0.00 0.00 63 1008.6
20260831004426 88 196 0.0 1.7 0.00 0.00 0.00 61 1008.7
20260831003425 88 226 0.9 2.6 0.00 0.00 0.00 61 1008.7
20260831002925 89 205 1.7 3.5 0.00 0.00 0.00 61 1008.7
20260831002425 89 234 1.7 3.5 0.00 0.00 0.00 60 1008.7
20260831001924 89 208 1.7 4.3 0.00 0.00 0.00 60 1008.8
20260831001425 89 205 1.7 5.2 0.00 0.00 0.00 59 1008.7
20260831000924 90 219 2.6 5.2 0.00 0.00 0.00 58 1008.7
20260831000425 90 215 2.6 5.2 0.00 0.00 0.00 58 1008.7
20260830235923 91 178 1.7 5.2 0.00 0.00 0.00 57 1008.7
20260830235423 91 230 2.6 6.1 0.00 0.00 0.00 57 1008.7
20260830234923 91 247 1.7 6.1 0.00 0.00 0.00 58 1008.6
20260830234424 92 240 2.6 5.2 0.00 0.00 0.00 56 1008.7
20260830233923 92 243 1.7 5.2 0.00 0.00 0.00 59 1008.7
20260830233423 92 212 2.6 5.2 0.00 0.00 0.00 58 1008.6
20260830232923 92 265 2.6 5.2 0.00 0.00 0.00 58 1008.7
20260830232423 92 238 1.7 5.2 0.00 0.00 0.00 60 1008.6
20260830231925 92 234 2.6 6.1 0.00 0.00 0.00 59 1008.7
20260830231423 92 261 3.5 6.1 0.00 0.00 0.00 57 1008.6
20260830230922 92 208 2.6 7.0 0.00 0.00 0.00 56 1008.5
20260830225922 92 221 2.6 8.7 0.00 0.00 0.00 56 1008.4
20260830225422 91 259 4.3 8.7 0.00 0.00 0.00 55 1008.4
20260830224921 91 243 3.5 7.0 0.00 0.00 0.00 56 1008.5
20260830224421 91 178 4.3 7.0 0.00 0.00 0.00 55 1008.5
20260830223922 91 198 3.5 10.4 0.00 0.00 0.00 54 1008.6
20260830222421 90 171 5.2 10.4 0.00 0.00 0.00 54 1008.6
20260830221923 91 227 3.5 9.6 0.00 0.00 0.00 54 1008.5
20260830221421 91 221 6.1 11.3 0.00 0.00 0.00 54 1008.4
20260830220421 91 219 6.1 13.0 0.00 0.00 0.00 54 1008.4
20260830215920 91 229 6.1 13.0 0.00 0.00 0.00 53 1008.4
20260830215420 91 221 3.5 10.4 0.00 0.00 0.00 54 1008.4
20260830212920 91 216 5.2 7.8 0.00 0.00 0.00 53 1008.2
20260830212419 91 190 3.5 9.6 0.00 0.00 0.00 55 1008.3
20260830211920 91 225 5.2 10.4 0.00 0.00 0.00 53 1008.3
20260830211418 91 166 4.3 13.0 0.00 0.00 0.00 54 1008.2
20260830210919 90 217 5.2 13.9 0.00 0.00 0.00 54 1008.4
20260830205918 89 229 5.2 12.2 0.00 0.00 0.00 54 1008.7
20260830205418 89 200 6.1 12.2 0.00 0.00 0.00 53 1008.9
20260830204918 89 212 7.0 11.3 0.00 0.00 0.00 53 1008.9
20260830204418 88 232 7.8 11.3 0.00 0.00 0.00 52 1008.9
20260830203918 88 225 4.3 10.4 0.00 0.00 0.00 54 1008.8
20260830202917 89 189 6.1 14.8 0.00 0.00 0.00 51 1008.9
20260830202417 90 214 7.8 14.8 0.00 0.00 0.00 53 1009.0
20260830201918 89 198 3.5 10.4 0.00 0.00 0.00 57 1009.0
20260830201416 89 254 5.2 10.4 0.00 0.00 0.00 55 1008.9
20260830200917 89 178 2.6 9.6 0.00 0.00 0.00 56 1008.6
20260830200416 89 178 3.5 9.6 0.00 0.00 0.00 55 1008.7
20260830195916 89 219 4.3 9.6 0.00 0.00 0.00 56 1008.9
20260830195416 89 202 5.2 12.2 0.00 0.00 0.00 55 1009.0
20260830194916 89 231 6.1 12.2 0.00 0.00 0.00 55 1009.0
20260830194415 89 201 6.1 12.2 0.00 0.00 0.00 55 1009.1
20260830193915 89 200 5.2 12.2 0.00 0.00 0.00 56 1009.3
20260830193414 89 275 6.1 13.0 0.00 0.00 0.00 55 1009.4
20260830192915 89 177 7.0 13.9 0.00 0.00 0.00 54 1009.3
20260830192415 89 187 7.8 13.9 0.00 0.00 0.00 54 1009.3
20260830191916 89 213 5.2 12.2 0.00 0.00 0.00 55 1009.2
20260830191415 89 225 6.1 12.2 0.00 0.00 0.00 54 1009.1
20260830190914 90 200 6.1 10.4 0.00 0.00 0.00 55 1009.0
20260830190414 90 201 2.6 8.7 0.00 0.00 0.00 58 1008.8
20260830185914 89 169 4.3 8.7 0.00 0.00 0.00 56 1008.7
20260830185414 89 151 4.3 10.4 0.00 0.00 0.00 57 1008.8
20260830184914 89 200 6.1 10.4 0.00 0.00 0.00 58 1009.0
20260830184413 88 262 5.2 12.2 0.00 0.00 0.00 57 1009.0
20260830183914 88 240 6.1 12.2 0.00 0.00 0.00 58 1008.9
20260830182913 87 221 4.3 9.6 0.00 0.00 0.00 61 1009.0
20260830182413 86 223 2.6 11.3 0.00 0.00 0.00 59 1009.1
20260830181914 86 223 5.2 13.0 0.00 0.00 0.00 57 1009.1
20260830181413 86 229 7.0 13.0 0.00 0.00 0.00 56 1009.2
20260830180913 87 219 7.0 13.0 0.00 0.00 0.00 56 1009.4
20260830180410 86 100 7.8 12.2 0.00 0.00 0.00 58 1009.5
20260830175911 85 223 6.1 12.2 0.00 0.00 0.00 58 1009.4
20260830175411 85 225 5.2 11.3 0.00 0.00 0.00 57 1009.6
20260830174910 86 257 5.2 11.3 0.00 0.00 0.00 57 1009.6
20260830174410 87 178 3.5 10.4 0.00 0.00 0.00 57 1009.4
20260830173910 87 171 4.3 8.7 0.00 0.00 0.00 57 1009.4
20260830173409 87 232 5.2 10.4 0.00 0.00 0.00 57 1009.3
20260830172909 86 238 5.2 11.3 0.00 0.00 0.00 59 1009.5
20260830171910 86 203 5.2 10.4 0.00 0.00 0.00 55 1009.5
20260830171409 86 188 6.1 10.4 0.00 0.00 0.00 55 1009.4
20260830170909 86 212 4.3 10.4 0.00 0.00 0.00 58 1009.4
20260830165909 86 165 3.5 10.4 0.00 0.00 0.00 57 1009.3
20260830165408 86 200 5.2 10.4 0.00 0.00 0.00 56 1009.3
20260830164408 87 169 5.2 10.4 0.00 0.00 0.00 55 1009.3
20260830163908 87 182 3.5 13.0 0.00 0.00 0.00 54 1009.2
20260830163407 86 205 4.3 13.0 0.00 0.00 0.00 57 1009.3
20260830162907 86 200 6.1 10.4 0.00 0.00 0.00 55 1009.3
20260830162407 86 177 5.2 10.4 0.00 0.00 0.00 56 1009.4
20260830161407 85 171 5.2 12.2 0.00 0.00 0.00 58 1009.4
20260830160906 85 159 4.3 11.3 0.00 0.00 0.00 60 1009.3
20260830160406 84 215 6.1 11.3 0.00 0.00 0.00 59 1009.3
20260830155406 83 137 4.3 10.4 0.00 0.00 0.00 61 1009.2
20260830154406 84 151 3.5 10.4 0.00 0.00 0.00 61 1009.2
20260830153905 84 133 5.2 10.4 0.00 0.00 0.00 61 1009.2
20260830153405 83 188 3.5 7.8 0.00 0.00 0.00 63 1009.5
20260830152406 83 153 3.5 8.7 0.00 0.00 0.00 61 1009.4
20260830151907 84 175 3.5 8.7 0.00 0.00 0.00 62 1009.4
20260830151405 83 221 3.5 7.8 0.00 0.00 0.00 62 1009.2
20260830150905 83 133 2.6 7.8 0.00 0.00 0.00 63 1009.2
20260830150404 82 170 3.5 7.8 0.00 0.00 0.00 63 1009.2
20260830145904 82 121 2.6 7.8 0.00 0.00 0.00 63 1009.1
20260830145404 82 128 4.3 7.8 0.00 0.00 0.00 62 1009.2
20260830144904 82 168 2.6 8.7 0.00 0.00 0.00 63 1009.1
20260830144404 82 130 4.3 8.7 0.00 0.00 0.00 64 1009.1
20260830143903 81 178 4.3 10.4 0.00 0.00 0.00 65 1009.0
20260830143403 81 162 3.5 10.4 0.00 0.00 0.00 65 1008.9
20260830142903 80 216 3.5 7.8 0.00 0.00 0.00 66 1009.0
20260830142402 80 158 3.5 7.0 0.00 0.00 0.00 67 1008.8
20260830141904 79 214 3.5 7.8 0.00 0.00 0.00 68 1009.0
20260830140903 78 286 3.5 8.7 0.00 0.00 0.00 67 1009.1
20260830135901 78 175 3.5 7.8 0.00 0.00 0.00 68 1009.1
20260830134902 78 148 3.5 7.8 0.00 0.00 0.00 68 1009.1
20260830134401 78 196 2.6 5.2 0.00 0.00 0.00 68 1009.1
20260830133901 77 151 2.6 4.3 0.00 0.00 0.00 69 1009.2
20260830133400 77 137 2.6 5.2 0.00 0.00 0.00 69 1009.0
20260830132901 77 137 2.6 7.0 0.00 0.00 0.00 69 1009.0
20260830132401 77 137 2.6 7.0 0.00 0.00 0.00 69 1009.1
20260830131400 77 133 2.6 6.1 0.00 0.00 0.00 69 1009.1
20260830130900 77 137 2.6 6.1 0.00 0.00 0.00 68 1009.1
20260830130359 77 150 2.6 6.1 0.00 0.00 0.00 68 1009.2
20260830125900 77 140 2.6 6.1 0.00 0.00 0.00 68 1009.2
20260830125359 77 196 1.7 5.2 0.00 0.00 0.00 67 1009.3
20260830124859 78 119 2.6 5.2 0.00 0.00 0.00 67 1009.3
20260830123859 78 238 2.6 8.7 0.00 0.00 0.00 67 1009.3
20260830123358 78 150 1.7 8.7 0.00 0.00 0.00 66 1009.3
20260830122859 78 157 3.5 7.8 0.00 0.00 0.00 66 1009.2
20260830122359 78 173 3.5 7.8 0.00 0.00 0.00 66 1009.0
20260830121859 78 178 3.5 7.8 0.00 0.00 0.00 66 1008.9
20260830121358 78 221 3.5 8.7 0.00 0.00 0.00 66 1009.0
20260830120858 78 162 4.3 8.7 0.00 0.00 0.00 66 1008.9
20260830120357 78 153 2.6 7.8 0.00 0.00 0.00 66 1009.1
20260830115857 78 119 3.5 7.8 0.00 0.00 0.00 66 1009.2
20260830115356 78 144 3.5 5.2 0.00 0.00 0.00 66 1009.1
20260830114856 77 171 1.7 6.1 0.00 0.00 0.00 66 1009.1
20260830114356 78 102 2.6 6.1 0.00 0.00 0.00 66 1008.9
20260830113856 78 123 3.5 6.1 0.00 0.00 0.00 66 1008.9
20260830113356 78 128 2.6 6.1 0.00 0.00 0.00 65 1008.9
20260830112856 78 133 2.6 6.1 0.00 0.00 0.00 65 1009.0
20260830112357 78 126 1.7 7.8 0.00 0.00 0.00 65 1009.0
20260830111355 78 163 1.7 8.7 0.00 0.00 0.00 66 1009.2
20260830110855 78 213 3.5 8.7 0.00 0.00 0.00 66 1009.4
20260830110355 77 213 2.6 6.1 0.00 0.00 0.00 67 1009.6
20260830105854 77 265 2.6 7.8 0.00 0.00 0.00 67 1009.7
20260830105354 78 254 3.5 7.8 0.00 0.00 0.00 67 1009.7
20260830104854 78 236 1.7 7.8 0.00 0.00 0.00 66 1009.7
20260830103854 79 238 4.3 6.1 0.00 0.00 0.00 64 1009.5
20260830103354 79 191 2.6 7.8 0.00 0.00 0.00 64 1009.5
20260830102853 79 192 3.5 7.8 0.00 0.00 0.00 64 1009.6
20260830102355 79 198 2.6 5.2 0.00 0.00 0.00 65 1009.6
20260830101854 79 221 3.5 6.1 0.00 0.00 0.00 64 1009.7
20260830101353 79 237 2.6 7.0 0.00 0.00 0.00 64 1009.9
20260830100854 79 236 2.6 7.0 0.00 0.00 0.00 64 1009.8
20260830100353 79 226 2.6 7.0 0.00 0.00 0.00 64 1009.8
20260830095853 79 209 1.7 6.1 0.00 0.00 0.00 64 1009.6
20260830094852 80 193 3.5 7.0 0.00 0.00 0.00 63 1009.7
20260830094352 80 191 2.6 5.2 0.00 0.00 0.00 63 1009.7
20260830093852 80 156 3.5 6.1 0.00 0.00 0.00 63 1009.7
20260830092853 80 203 3.5 7.0 0.00 0.00 0.00 63 1009.7
20260830092353 79 203 3.5 7.0 0.00 0.00 0.00 64 1009.8
20260830091852 79 242 3.5 6.1 0.00 0.00 0.00 64 1009.7
20260830091352 79 200 3.5 6.1 0.00 0.00 0.00 64 1009.4
20260830090851 79 201 2.6 7.8 0.00 0.00 0.00 64 1009.4
20260830090353 79 205 3.5 7.8 0.00 0.00 0.00 64 1009.3
20260830085852 79 119 3.5 7.0 0.00 0.00 0.00 64 1009.3
20260830085352 79 205 3.5 7.0 0.00 0.00 0.00 65 1009.3
20260830084851 79 178 3.5 7.0 0.00 0.00 0.00 65 1009.3
20260830084351 79 195 1.7 7.8 0.00 0.00 0.00 65 1009.2
20260830083850 79 198 4.3 7.8 0.00 0.00 0.00 65 1009.3
20260830083351 79 187 3.5 5.2 0.00 0.00 0.00 65 1009.3
20260830082851 79 163 2.6 6.1 0.00 0.00 0.00 65 1009.3
20260830081851 79 196 3.5 10.4 0.00 0.00 0.00 65 1009.4
20260830081350 79 121 3.5 10.4 0.00 0.00 0.00 65 1009.3
20260830080850 79 158 3.5 7.8 0.00 0.00 0.00 65 1009.3
20260830080350 79 162 2.6 7.0 0.00 0.00 0.00 65 1009.3
20260830075850 79 178 3.5 6.1 0.00 0.00 0.00 65 1009.3
20260830075350 79 188 2.6 7.0 0.00 0.00 0.00 65 1009.2
20260830074850 79 190 3.5 7.0 0.00 0.00 0.00 65 1009.2
20260830074349 79 148 3.5 7.0 0.00 0.00 0.00 65 1009.1
20260830073850 79 164 4.3 8.7 0.00 0.00 0.00 65 1009.1
20260830073349 79 168 4.3 8.7 0.00 0.00 0.00 65 1009.0
20260830072849 79 137 3.5 6.1 0.00 0.00 0.00 65 1009.0